| time (UTC) | temp C | wind direction | speed KPH | gust KPH | rain 1hr cm | rain 24hr cm | rain mn cm | humidity % | barometer mb |
| 20260506080735 | 12 | 107 | 12.9 | 27.4 | 0.89 | 7.70 | 0.61 | 98 | 1008.7 |
| 20260506080228 | 12 | 146 | 17.7 | 27.4 | 0.71 | 7.49 | 0.58 | 98 | 1008.6 |
| 20260506073223 | 12 | 138 | 11.3 | 30.6 | 0.30 | 7.90 | 0.48 | 98 | 1008.6 |
| 20260506072726 | 12 | 136 | 16.1 | 30.6 | 0.30 | 7.90 | 0.48 | 98 | 1008.5 |
| 20260506072235 | 12 | 117 | 9.7 | 19.3 | 0.30 | 7.90 | 0.48 | 98 | 1008.5 |
| 20260506071730 | 12 | 108 | 12.9 | 27.4 | 0.20 | 7.80 | 0.46 | 98 | 1008.5 |
| 20260506071242 | 12 | 84 | 14.5 | 29.0 | 0.10 | 7.70 | 0.43 | 98 | 1008.6 |
| 20260506070748 | 12 | 129 | 11.3 | 22.5 | 0.10 | 7.70 | 0.43 | 98 | 1008.7 |
| 20260506070241 | 12 | 106 | 9.7 | 19.3 | 0.10 | 7.70 | 0.43 | 98 | 1008.6 |
| 20260506062230 | 12 | 104 | 12.9 | 22.5 | 0.20 | 9.91 | 0.43 | 98 | 1008.8 |
| 20260506061723 | 12 | 130 | 8.0 | 17.7 | 0.20 | 9.91 | 0.43 | 98 | 1008.9 |
| 20260506061237 | 12 | 153 | 8.0 | 17.7 | 0.30 | 9.91 | 0.43 | 98 | 1008.9 |
| 20260506060745 | 12 | 101 | 8.0 | 17.7 | 0.30 | 9.91 | 0.43 | 98 | 1008.9 |
| 20260506060227 | 12 | 101 | 9.7 | 22.5 | 0.30 | 9.91 | 0.43 | 98 | 1008.7 |
| 20260506051246 | 12 | 76 | 11.3 | 19.3 | 0.41 | 9.91 | 0.36 | 98 | 1009.0 |
| 20260506050754 | 12 | 115 | 11.3 | 19.3 | 0.41 | 9.91 | 0.36 | 98 | 1009.1 |
| 20260506050227 | 12 | 115 | 9.7 | 19.3 | 0.41 | 9.91 | 0.36 | 98 | 1009.3 |
| 20260506044738 | 12 | 129 | 6.4 | 14.5 | 0.41 | 9.91 | 0.36 | 98 | 1009.3 |
| 20260506044249 | 12 | 98 | 3.2 | 14.5 | 0.30 | 9.80 | 0.33 | 98 | 1009.4 |
| 20260506043732 | 12 | 133 | 6.4 | 16.1 | 0.30 | 9.80 | 0.33 | 98 | 1009.5 |
| 20260506043222 | 12 | 132 | 8.0 | 19.3 | 0.30 | 9.80 | 0.33 | 98 | 1009.5 |
| 20260506042734 | 12 | 134 | 6.4 | 19.3 | 0.20 | 9.70 | 0.33 | 98 | 1009.4 |
| 20260506042244 | 12 | 128 | 4.8 | 14.5 | 0.20 | 9.60 | 0.30 | 98 | 1009.5 |
| 20260506041728 | 12 | 121 | 8.0 | 14.5 | 0.20 | 9.60 | 0.30 | 98 | 1009.4 |
| 20260506041222 | 12 | 105 | 4.8 | 12.9 | 0.20 | 9.50 | 0.28 | 98 | 1009.7 |
| 20260506040730 | 12 | 111 | 6.4 | 16.1 | 0.30 | 9.50 | 0.28 | 98 | 1009.6 |
| 20260506040244 | 12 | 128 | 8.0 | 16.1 | 0.30 | 9.50 | 0.28 | 98 | 1009.6 |
| 20260506035729 | 12 | 139 | 8.0 | 16.1 | 0.30 | 9.50 | 0.28 | 98 | 1009.6 |
| 20260506035220 | 12 | 107 | 6.4 | 16.1 | 0.30 | 9.50 | 0.28 | 98 | 1009.6 |
| 20260506034733 | 12 | 136 | 4.8 | 19.3 | 0.30 | 9.50 | 0.28 | 98 | 1009.6 |
| 20260506034230 | 12 | 101 | 8.0 | 12.9 | 0.41 | 9.50 | 0.28 | 98 | 1009.5 |
| 20260506033724 | 12 | 175 | 6.4 | 14.5 | 0.41 | 9.50 | 0.28 | 98 | 1009.6 |
| 20260506033238 | 12 | 112 | 4.8 | 14.5 | 0.51 | 9.50 | 0.28 | 98 | 1009.5 |
| 20260506032722 | 12 | 119 | 4.8 | 11.3 | 0.51 | 9.50 | 0.28 | 98 | 1009.6 |
| 20260506032234 | 12 | 142 | 6.4 | 14.5 | 0.41 | 9.40 | 0.25 | 98 | 1009.5 |
| 20260506031728 | 12 | 105 | 8.0 | 14.5 | 0.41 | 9.40 | 0.25 | 98 | 1009.5 |
| 20260506031232 | 12 | 134 | 8.0 | 14.5 | 0.30 | 9.30 | 0.23 | 98 | 1009.5 |
| 20260506030721 | 12 | 136 | 6.4 | 12.9 | 0.20 | 9.19 | 0.23 | 98 | 1009.7 |
| 20260506030233 | 12 | 107 | 6.4 | 11.3 | 0.20 | 9.19 | 0.23 | 98 | 1009.9 |
| 20260506025726 | 12 | 179 | 4.8 | 12.9 | 0.20 | 9.19 | 0.23 | 98 | 1010.0 |
| 20260506025300 | 12 | 130 | 6.4 | 12.9 | 0.20 | 9.19 | 0.23 | 98 | 1010.3 |
| 20260506024752 | 12 | 132 | 3.2 | 11.3 | 0.20 | 9.19 | 0.23 | 98 | 1010.3 |
| 20260506024229 | 12 | 133 | 4.8 | 12.9 | 0.10 | 9.09 | 0.20 | 98 | 1010.3 |
| 20260506023723 | 12 | 111 | 6.4 | 12.9 | 0.10 | 9.09 | 0.20 | 98 | 1010.4 |
| 20260506023225 | 12 | 137 | 6.4 | 12.9 | 0.00 | 8.99 | 0.18 | 98 | 1010.5 |
| 20260506022738 | 12 | 98 | 4.8 | 12.9 | 0.00 | 8.99 | 0.18 | 98 | 1010.5 |
| 20260506022248 | 12 | 93 | 4.8 | 12.9 | 0.00 | 8.99 | 0.18 | 98 | 1010.5 |
| 20260506021721 | 12 | 104 | 6.4 | 14.5 | 0.10 | 8.99 | 0.18 | 98 | 1010.5 |
| 20260506021224 | 12 | 119 | 4.8 | 14.5 | 0.20 | 8.99 | 0.18 | 98 | 1010.6 |
| 20260506020734 | 12 | 132 | 6.4 | 12.9 | 0.51 | 8.99 | 0.18 | 98 | 1010.6 |
| 20260506020305 | 12 | 136 | 6.4 | 16.1 | 0.61 | 8.99 | 0.18 | 98 | 1010.6 |
| 20260506015726 | 12 | 135 | 6.4 | 16.1 | 0.89 | 8.99 | 0.18 | 98 | 1010.6 |
| 20260506015220 | 12 | 116 | 4.8 | 12.9 | 0.89 | 8.99 | 0.18 | 98 | 1010.7 |
| 20260506014726 | 12 | 123 | 4.8 | 12.9 | 0.89 | 8.99 | 0.18 | 98 | 1010.6 |
| 20260506014220 | 12 | 111 | 4.8 | 11.3 | 0.89 | 8.99 | 0.18 | 98 | 1010.6 |
| 20260506013732 | 12 | 117 | 6.4 | 11.3 | 0.89 | 8.99 | 0.18 | 98 | 1010.6 |
| 20260506013245 | 12 | 129 | 4.8 | 11.3 | 0.89 | 8.99 | 0.18 | 98 | 1010.6 |
| 20260506012729 | 12 | 109 | 1.6 | 11.3 | 0.89 | 8.99 | 0.18 | 98 | 1010.6 |
| 20260506012221 | 12 | 125 | 3.2 | 12.9 | 0.89 | 8.99 | 0.18 | 98 | 1010.6 |
| 20260506011725 | 12 | 113 | 8.0 | 12.9 | 0.79 | 8.89 | 0.15 | 98 | 1010.5 |
| 20260506011309 | 12 | 82 | 6.4 | 14.5 | 0.71 | 8.79 | 0.15 | 98 | 1010.7 |
| 20260506010729 | 12 | 140 | 8.0 | 14.5 | 0.41 | 8.51 | 0.08 | 98 | 1010.8 |
| 20260506010222 | 12 | 109 | 4.8 | 12.9 | 0.20 | 8.31 | 0.05 | 98 | 1010.9 |
| 20260506005731 | 12 | 137 | 4.8 | 14.5 | 0.00 | 8.10 | 0.00 | 98 | 1010.8 |
| 20260506005235 | 12 | 125 | 8.0 | 17.7 | 0.00 | 8.10 | 0.00 | 98 | 1010.9 |
| 20260506004748 | 12 | 113 | 9.7 | 17.7 | 0.00 | 8.10 | 0.00 | 98 | 1011.0 |
| 20260506004219 | 12 | 111 | 6.4 | 14.5 | 0.00 | 8.10 | 0.00 | 98 | 1011.2 |
| 20260506003721 | 12 | 145 | 9.7 | 12.9 | 0.00 | 8.10 | 0.00 | 98 | 1011.2 |
| 20260506003224 | 12 | 134 | 3.2 | 11.3 | 0.00 | 8.10 | 0.00 | 98 | 1011.2 |
| 20260506002807 | 12 | 146 | 4.8 | 12.9 | 0.00 | 8.10 | 0.00 | 98 | 1011.3 |
| 20260506002228 | 12 | 120 | 4.8 | 12.9 | 0.00 | 8.10 | 0.00 | 98 | 1011.3 |
| 20260506001721 | 12 | 109 | 3.2 | 9.7 | 0.00 | 8.10 | 0.00 | 98 | 1011.3 |
| 20260506001253 | 12 | 108 | 3.2 | 11.3 | 0.00 | 8.10 | 0.00 | 98 | 1011.4 |
| 20260506000741 | 12 | 97 | 4.8 | 11.3 | 0.00 | 8.10 | 0.00 | 98 | 1011.5 |
| 20260506000232 | 12 | 99 | 4.8 | 6.4 | 0.00 | 8.10 | 0.00 | 98 | 1011.5 |
| 20260505235727 | 12 | 107 | 3.2 | 6.4 | 0.00 | 8.10 | 0.00 | 98 | 1011.6 |
| 20260505235255 | 12 | 139 | 1.6 | 6.4 | 0.00 | 8.10 | 0.00 | 98 | 1011.7 |
| 20260505234749 | 12 | 126 | 3.2 | 6.4 | 0.00 | 8.10 | 0.00 | 98 | 1011.7 |
| 20260505234230 | 12 | 107 | 3.2 | 6.4 | 0.00 | 8.10 | 0.00 | 98 | 1011.8 |
| 20260505233724 | 12 | 148 | 3.2 | 6.4 | 0.00 | 8.10 | 0.00 | 98 | 1011.9 |
| 20260505233238 | 12 | 126 | 3.2 | 6.4 | 0.00 | 8.10 | 0.00 | 98 | 1011.9 |
| 20260505232722 | 12 | 117 | 1.6 | 4.8 | 0.00 | 8.10 | 0.00 | 98 | 1011.9 |
| 20260505232235 | 12 | 126 | 1.6 | 4.8 | 0.00 | 8.10 | 0.00 | 98 | 1011.8 |
| 20260505231728 | 12 | 92 | 3.2 | 4.8 | 0.00 | 8.10 | 0.00 | 98 | 1011.8 |
| 20260505231243 | 12 | 105 | 1.6 | 3.2 | 0.00 | 8.10 | 0.00 | 98 | 1011.8 |
| 20260505230722 | 12 | 99 | 1.6 | 4.8 | 0.00 | 8.10 | 0.00 | 98 | 1012.0 |
| 20260505230236 | 12 | 119 | 1.6 | 4.8 | 0.00 | 8.10 | 0.00 | 98 | 1012.1 |
| 20260505225730 | 12 | 119 | 0.0 | 6.4 | 0.00 | 8.10 | 0.00 | 98 | 1012.1 |
| 20260505225244 | 12 | 65 | 3.2 | 6.4 | 0.00 | 8.10 | 0.00 | 98 | 1012.0 |
| 20260505224749 | 12 | 105 | 1.6 | 4.8 | 0.00 | 8.10 | 0.00 | 98 | 1012.1 |
| 20260505224228 | 12 | 95 | 1.6 | 4.8 | 0.00 | 8.10 | 0.00 | 98 | 1012.1 |
| 20260505223743 | 12 | 107 | 0.0 | 4.8 | 0.00 | 8.10 | 0.00 | 98 | 1012.2 |
| 20260505223228 | 12 | 121 | 1.6 | 4.8 | 0.00 | 8.10 | 0.00 | 98 | 1012.2 |
| 20260505222733 | 12 | 130 | 1.6 | 4.8 | 0.00 | 8.10 | 0.00 | 98 | 1012.3 |
| 20260505222224 | 12 | 111 | 0.0 | 4.8 | 0.00 | 8.10 | 0.00 | 98 | 1012.3 |
| 20260505221732 | 12 | 111 | 3.2 | 4.8 | 0.00 | 8.10 | 0.00 | 98 | 1012.3 |
| 20260505221245 | 12 | 119 | 1.6 | 4.8 | 0.00 | 8.10 | 0.00 | 98 | 1012.3 |
| 20260505220728 | 12 | 117 | 1.6 | 4.8 | 0.00 | 8.10 | 0.00 | 98 | 1012.3 |
| 20260505220241 | 12 | 134 | 3.2 | 4.8 | 0.00 | 8.10 | 0.00 | 98 | 1012.3 |
| 20260505215725 | 12 | 119 | 0.0 | 4.8 | 0.00 | 8.10 | 1.63 | 97 | 1012.3 |
| 20260505215238 | 12 | 113 | 3.2 | 4.8 | 0.00 | 8.10 | 1.63 | 97 | 1012.4 |
| 20260505214752 | 12 | 110 | 1.6 | 11.3 | 0.00 | 8.10 | 1.63 | 97 | 1012.4 |
| 20260505214239 | 12 | 98 | 4.8 | 11.3 | 0.00 | 8.10 | 1.63 | 97 | 1012.6 |
| 20260505213746 | 12 | 106 | 3.2 | 11.3 | 0.00 | 8.10 | 1.63 | 97 | 1012.6 |
| 20260505213229 | 12 | 86 | 4.8 | 11.3 | 0.00 | 8.10 | 1.63 | 97 | 1012.7 |
| 20260505212811 | 12 | 141 | 4.8 | 11.3 | 0.00 | 8.10 | 1.63 | 97 | 1012.7 |
| 20260505212234 | 12 | 89 | 1.6 | 6.4 | 0.00 | 8.10 | 1.63 | 97 | 1012.8 |
| 20260505211727 | 12 | 117 | 4.8 | 9.7 | 0.10 | 8.10 | 1.63 | 97 | 1012.8 |
| 20260505211256 | 12 | 96 | 4.8 | 9.7 | 0.10 | 8.10 | 1.63 | 97 | 1012.9 |
| 20260505210724 | 12 | 112 | 3.2 | 6.4 | 0.10 | 8.10 | 1.63 | 97 | 1012.8 |
| 20260505210238 | 12 | 105 | 3.2 | 8.0 | 0.10 | 8.10 | 1.63 | 97 | 1012.9 |
| 20260505205742 | 12 | 95 | 3.2 | 8.0 | 0.20 | 8.10 | 1.63 | 97 | 1012.9 |
| 20260505205234 | 12 | 108 | 3.2 | 6.4 | 0.20 | 8.10 | 1.63 | 97 | 1012.9 |
| 20260505204728 | 12 | 136 | 3.2 | 8.0 | 0.30 | 8.10 | 1.63 | 97 | 1013.0 |
| 20260505204258 | 12 | 113 | 4.8 | 8.0 | 0.41 | 8.10 | 1.63 | 100 | 1013.0 |
| 20260505203750 | 12 | 134 | 4.8 | 9.7 | 0.41 | 8.10 | 1.63 | 98 | 1013.0 |
| 20260505203243 | 12 | 115 | 3.2 | 6.4 | 0.41 | 8.10 | 1.63 | 98 | 1012.9 |
| 20260505202734 | 12 | 136 | 1.6 | 4.8 | 0.41 | 8.10 | 1.63 | 98 | 1012.9 |
| 20260505202245 | 12 | 130 | 0.0 | 3.2 | 0.41 | 8.10 | 1.63 | 98 | 1013.0 |
| 20260505201757 | 12 | 130 | 0.0 | 4.8 | 0.30 | 8.00 | 1.60 | 100 | 1013.0 |
| 20260505201222 | 12 | 117 | 3.2 | 4.8 | 0.30 | 8.00 | 1.60 | 100 | 1013.1 |
| 20260505200726 | 12 | 119 | 1.6 | 3.2 | 0.30 | 8.00 | 1.60 | 100 | 1013.0 |
| 20260505200243 | 12 | 127 | 0.0 | 0.0 | 0.30 | 8.00 | 1.60 | 97 | 1013.0 |
| 20260505195730 | 12 | 151 | 0.0 | 4.8 | 0.20 | 7.90 | 1.57 | 97 | 1012.9 |
| 20260505195231 | 12 | 119 | 3.2 | 4.8 | 0.20 | 7.90 | 1.57 | 97 | 1012.8 |
| 20260505194722 | 12 | 134 | 1.6 | 6.4 | 0.10 | 7.80 | 1.55 | 97 | 1012.8 |
| 20260505194233 | 12 | 107 | 3.2 | 6.4 | 0.00 | 7.70 | 1.55 | 97 | 1012.8 |
| 20260505193722 | 12 | 105 | 3.2 | 6.4 | 0.00 | 7.70 | 1.55 | 97 | 1012.8 |
| 20260505193224 | 12 | 105 | 3.2 | 6.4 | 0.00 | 7.70 | 1.55 | 97 | 1012.7 |
| 20260505192805 | 12 | 125 | 3.2 | 4.8 | 0.00 | 7.70 | 1.55 | 97 | 1012.8 |
| 20260505192225 | 12 | 112 | 1.6 | 6.4 | 0.10 | 7.70 | 1.55 | 97 | 1012.7 |
| 20260505191756 | 12 | 99 | 3.2 | 9.7 | 0.10 | 7.70 | 1.55 | 97 | 1012.6 |
| 20260505191249 | 12 | 95 | 1.6 | 6.4 | 0.10 | 7.70 | 1.55 | 97 | 1012.7 |
| 20260505190746 | 12 | 97 | 3.2 | 6.4 | 0.10 | 7.70 | 1.55 | 97 | 1012.6 |
| 20260505190229 | 12 | 107 | 4.8 | 11.3 | 0.10 | 7.70 | 1.55 | 97 | 1012.6 |
| 20260505185721 | 12 | 91 | 3.2 | 11.3 | 0.10 | 7.70 | 1.55 | 97 | 1012.4 |
| 20260505185232 | 12 | 123 | 4.8 | 9.7 | 0.10 | 7.70 | 1.55 | 97 | 1012.4 |
| 20260505184745 | 12 | 121 | 4.8 | 9.7 | 0.10 | 7.70 | 1.55 | 97 | 1012.3 |
| 20260505184228 | 12 | 121 | 4.8 | 12.9 | 0.10 | 7.70 | 1.55 | 97 | 1012.4 |
| 20260505183722 | 12 | 95 | 6.4 | 16.1 | 0.20 | 7.70 | 1.55 | 97 | 1012.4 |
| 20260505183235 | 12 | 111 | 6.4 | 16.1 | 0.20 | 7.70 | 1.55 | 97 | 1012.4 |
| 20260505182747 | 12 | 137 | 4.8 | 12.9 | 0.20 | 7.70 | 1.55 | 97 | 1012.4 |
| 20260505182231 | 12 | 101 | 8.0 | 12.9 | 0.30 | 7.59 | 1.52 | 97 | 1012.4 |
| 20260505181724 | 12 | 130 | 4.8 | 12.9 | 0.51 | 7.59 | 1.52 | 97 | 1012.5 |
| 20260505181259 | 12 | 105 | 9.7 | 12.9 | 0.51 | 7.59 | 1.52 | 97 | 1012.5 |
| 20260505180747 | 12 | 117 | 4.8 | 11.3 | 0.61 | 7.59 | 1.52 | 97 | 1012.5 |
| 20260505180232 | 12 | 90 | 4.8 | 11.3 | 0.61 | 7.59 | 1.52 | 97 | 1012.5 |
| 20260505175725 | 12 | 116 | 4.8 | 11.3 | 0.61 | 7.59 | 1.52 | 97 | 1012.4 |
| 20260505175239 | 12 | 103 | 4.8 | 11.3 | 0.61 | 7.59 | 1.52 | 97 | 1012.4 |
| 20260505174741 | 12 | 105 | 1.6 | 6.4 | 0.61 | 7.59 | 1.52 | 97 | 1012.4 |
| 20260505174234 | 12 | 83 | 1.6 | 8.0 | 0.71 | 7.59 | 1.52 | 97 | 1012.4 |
| 20260505173728 | 12 | 82 | 3.2 | 8.0 | 0.61 | 7.49 | 1.50 | 97 | 1012.4 |
| 20260505173241 | 12 | 55 | 3.2 | 9.7 | 0.61 | 7.49 | 1.50 | 97 | 1012.4 |
| 20260505172744 | 12 | 158 | 3.2 | 12.9 | 0.51 | 7.39 | 1.47 | 97 | 1012.5 |
| 20260505172237 | 12 | 99 | 6.4 | 12.9 | 0.41 | 7.29 | 1.45 | 97 | 1012.4 |
| 20260505171731 | 12 | 105 | 6.4 | 12.9 | 0.30 | 7.11 | 1.42 | 97 | 1012.6 |
| 20260505171244 | 12 | 107 | 8.0 | 12.9 | 0.41 | 7.11 | 1.42 | 97 | 1012.5 |
| 20260505170724 | 12 | 98 | 6.4 | 11.3 | 0.30 | 7.01 | 1.40 | 97 | 1012.5 |
| 20260505170235 | 12 | 128 | 4.8 | 9.7 | 0.41 | 7.01 | 1.40 | 97 | 1012.4 |
| 20260505165727 | 12 | 128 | 4.8 | 11.3 | 0.51 | 7.01 | 1.40 | 97 | 1012.4 |
| 20260505165236 | 12 | 100 | 4.8 | 11.3 | 0.61 | 7.01 | 1.40 | 97 | 1012.4 |
| 20260505164719 | 12 | 104 | 4.8 | 12.9 | 0.71 | 6.91 | 1.37 | 97 | 1012.6 |
| 20260505164231 | 12 | 94 | 6.4 | 14.5 | 0.71 | 6.91 | 1.37 | 97 | 1012.5 |
| 20260505163725 | 12 | 113 | 8.0 | 14.5 | 0.79 | 6.91 | 1.37 | 97 | 1012.5 |
| 20260505163259 | 12 | 130 | 6.4 | 14.5 | 0.89 | 6.91 | 1.37 | 97 | 1012.5 |
| 20260505162750 | 12 | 103 | 8.0 | 14.5 | 0.89 | 6.91 | 1.37 | 97 | 1012.6 |
| 20260505162229 | 12 | 109 | 6.4 | 14.5 | 0.99 | 6.91 | 1.37 | 97 | 1012.6 |
| 20260505161722 | 12 | 98 | 4.8 | 14.5 | 0.89 | 6.81 | 1.37 | 97 | 1012.6 |
| 20260505161235 | 12 | 84 | 4.8 | 14.5 | 0.79 | 6.71 | 1.35 | 97 | 1012.6 |
| 20260505160742 | 12 | 96 | 8.0 | 14.5 | 0.79 | 6.71 | 1.35 | 97 | 1012.6 |
| 20260505160226 | 12 | 68 | 6.4 | 14.5 | 0.71 | 6.60 | 1.32 | 97 | 1012.6 |
| 20260505153235 | 12 | 103 | 3.2 | 11.3 | 0.20 | 5.99 | 1.19 | 96 | 1012.7 |
| 20260505152728 | 12 | 88 | 6.4 | 12.9 | 0.20 | 5.99 | 1.19 | 96 | 1012.8 |
| 20260505152241 | 12 | 82 | 4.8 | 12.9 | 0.10 | 5.89 | 1.17 | 96 | 1012.7 |
| 20260505151724 | 12 | 57 | 6.4 | 14.5 | 0.10 | 5.89 | 1.17 | 96 | 1012.7 |
| 20260505151233 | 12 | 90 | 6.4 | 14.5 | 0.10 | 5.89 | 1.17 | 96 | 1012.8 |
| 20260505150722 | 12 | 78 | 6.4 | 11.3 | 0.10 | 5.89 | 1.17 | 96 | 1012.9 |
| 20260505150255 | 12 | 87 | 6.4 | 12.9 | 0.10 | 5.89 | 1.17 | 96 | 1012.8 |
| 20260505140228 | 12 | 88 | 3.2 | 11.3 | 0.00 | 5.79 | 1.17 | 96 | 1013.1 |
| 20260505130228 | 12 | 123 | 1.6 | 6.4 | 0.20 | 5.79 | 1.17 | 96 | 1013.4 |
| 20260505124738 | 12 | 93 | 6.4 | 11.3 | 0.30 | 5.69 | 1.14 | 96 | 1013.6 |
| 20260505124222 | 12 | 113 | 6.4 | 11.3 | 0.30 | 5.69 | 1.14 | 96 | 1013.6 |
| 20260505123736 | 12 | 118 | 4.8 | 11.3 | 0.41 | 5.69 | 1.14 | 96 | 1013.5 |
| 20260505123229 | 12 | 94 | 3.2 | 6.4 | 0.41 | 5.69 | 1.14 | 96 | 1013.4 |
| 20260505122734 | 12 | 119 | 3.2 | 4.8 | 0.51 | 5.69 | 1.14 | 96 | 1013.3 |
| 20260505122246 | 12 | 118 | 1.6 | 4.8 | 0.51 | 5.69 | 1.14 | 95 | 1013.4 |
| 20260505121739 | 12 | 100 | 0.0 | 3.2 | 0.61 | 5.69 | 1.14 | 96 | 1013.4 |
| 20260505121232 | 12 | 120 | 0.0 | 3.2 | 0.51 | 5.59 | 1.12 | 96 | 1013.3 |
| 20260505120817 | 12 | 223 | 0.0 | 3.2 | 0.51 | 5.59 | 1.12 | 96 | 1013.4 |
| 20260505120245 | 12 | 223 | 1.6 | 3.2 | 0.61 | 5.59 | 1.12 | 96 | 1013.7 |
| 20260505115736 | 12 | 223 | 0.0 | 3.2 | 0.61 | 5.59 | 1.12 | 96 | 1013.4 |
| 20260505115249 | 12 | 223 | 0.0 | 3.2 | 0.61 | 5.51 | 1.09 | 96 | 1013.4 |
| 20260505114730 | 12 | 223 | 0.0 | 3.2 | 0.51 | 5.41 | 1.09 | 96 | 1013.3 |
| 20260505114224 | 12 | 223 | 0.0 | 6.4 | 0.61 | 5.41 | 1.09 | 96 | 1013.4 |
| 20260505113730 | 12 | 263 | 4.8 | 6.4 | 0.51 | 5.31 | 1.07 | 96 | 1013.5 |
| 20260505113243 | 12 | 202 | 4.8 | 8.0 | 0.61 | 5.31 | 1.07 | 96 | 1013.7 |
| 20260505112734 | 12 | 220 | 4.8 | 8.0 | 0.51 | 5.21 | 1.04 | 96 | 1013.5 |
| 20260505112239 | 12 | 219 | 4.8 | 8.0 | 0.51 | 5.21 | 1.04 | 95 | 1013.7 |
| 20260505111732 | 12 | 229 | 3.2 | 6.4 | 0.51 | 5.11 | 1.02 | 95 | 1013.7 |
| 20260505111225 | 12 | 237 | 4.8 | 6.4 | 0.61 | 5.11 | 1.02 | 95 | 1013.7 |
| 20260505110752 | 12 | 227 | 1.6 | 4.8 | 0.61 | 5.11 | 1.02 | 96 | 1013.7 |
| 20260505110240 | 12 | 284 | 0.0 | 1.6 | 0.61 | 5.00 | 0.99 | 95 | 1013.7 |
| 20260505101730 | 12 | 346 | 3.2 | 6.4 | 0.61 | 4.60 | 0.91 | 95 | 1013.7 |
| 20260505101221 | 12 | 315 | 4.8 | 6.4 | 0.51 | 4.50 | 0.89 | 95 | 1013.7 |
| 20260505100729 | 12 | 344 | 4.8 | 8.0 | 0.51 | 4.50 | 0.89 | 95 | 1013.7 |
| 20260505100242 | 12 | 331 | 3.2 | 11.3 | 0.51 | 4.39 | 0.89 | 95 | 1013.7 |
| 20260505095734 | 12 | 342 | 6.4 | 11.3 | 0.61 | 4.39 | 0.89 | 95 | 1013.6 |
| 20260505095228 | 12 | 305 | 3.2 | 6.4 | 0.51 | 4.29 | 0.86 | 95 | 1013.7 |
| 20260505094730 | 12 | 342 | 0.0 | 8.0 | 0.51 | 4.29 | 0.86 | 95 | 1013.8 |
| 20260505094224 | 12 | 295 | 1.6 | 8.0 | 0.41 | 4.19 | 0.84 | 95 | 1013.7 |
| 20260505093732 | 12 | 325 | 3.2 | 9.7 | 0.51 | 4.19 | 0.84 | 95 | 1013.7 |
| 20260505093228 | 12 | 317 | 4.8 | 9.7 | 0.41 | 4.09 | 0.81 | 95 | 1013.7 |
| 20260505092730 | 12 | 346 | 3.2 | 6.4 | 0.41 | 4.09 | 0.81 | 95 | 1013.5 |
| 20260505092243 | 12 | 5 | 3.2 | 9.7 | 0.51 | 4.09 | 0.81 | 94 | 1013.5 |
| 20260505091736 | 12 | 360 | 4.8 | 9.7 | 0.41 | 3.99 | 0.79 | 94 | 1013.4 |
| 20260505091230 | 12 | 355 | 4.8 | 8.0 | 0.51 | 3.99 | 0.79 | 94 | 1013.5 |
| 20260505090739 | 12 | 36 | 3.2 | 8.0 | 0.51 | 3.99 | 0.79 | 94 | 1013.5 |
| 20260505090223 | 12 | 350 | 3.2 | 6.4 | 0.41 | 3.91 | 0.79 | 94 | 1013.7 |
| 20260505085734 | 12 | 344 | 3.2 | 6.4 | 0.41 | 3.81 | 0.76 | 94 | 1013.7 |
| 20260505085246 | 12 | 13 | 3.2 | 8.0 | 0.41 | 3.81 | 0.76 | 94 | 1013.5 |
| 20260505084728 | 12 | 13 | 1.6 | 8.0 | 0.51 | 3.81 | 0.76 | 93 | 1013.4 |
| 20260505084300 | 12 | 44 | 3.2 | 8.0 | 0.51 | 3.81 | 0.76 | 94 | 1013.3 |
| 20260505083748 | 12 | 65 | 4.8 | 12.9 | 0.41 | 3.71 | 0.74 | 94 | 1013.3 |
| 20260505083227 | 12 | 74 | 6.4 | 12.9 | 0.51 | 3.71 | 0.74 | 94 | 1013.2 |
| 20260505082758 | 12 | 44 | 4.8 | 8.0 | 0.51 | 3.71 | 0.74 | 94 | 1013.3 |
| 20260505082222 | 12 | 61 | 3.2 | 9.7 | 0.51 | 3.61 | 0.71 | 94 | 1013.4 |
| 20260505081730 | 12 | 24 | 6.4 | 9.7 | 0.61 | 3.61 | 0.71 | 94 | 1013.3 |
| 20260505081224 | 12 | 74 | 4.8 | 12.9 | 0.61 | 3.51 | 0.71 | 94 | 1013.3 |